Regional Weather Roundup
Issued by NWS

Home | Current Version | Previous Version | Graphics & Text | Print | Product List | Glossary On
Versions: 1 2 3 4 5 6 7 8 9 10 11 12 13 14 15 16 17 18 19 20 21 22 23 24 25 26 27 28 29 30 31 32 33 34 35 36 37 38 39 40 41 42 43 44 45 46 47 48 49 50
000
ASUS43 KMPX 132310
RWRMN
WEATHER ROUNDUP FOR MINNESOTA
NATIONAL WEATHER SERVICE TWIN CITIES/CHANHASSEN MN
500 PM CST SAT FEB 13 2016


NOTE: "FAIR" INDICATES FEW OR NO CLOUDS BELOW 12,000 FEET WITH NO
SIGNIFICANT WEATHER AND/OR OBSTRUCTIONS TO VISIBILITY. N/A MEANS
CURRENT SKY AND/OR WEATHER CONDITIONS ARE NOT AVAILABLE.

MNZ060>063-068>070-140000-
   Twin Cities Metro

CITY           SKY/WX    TMP DP  RH WIND       PRES   REMARKS
TWIN CITIES    CLOUDY     9  -9  44 SE8       30.45F WCI  -3
ST PAUL        CLOUDY     9  -8  46 S9        30.48F WCI  -4
CRYSTAL        CLOUDY    10  -9  42 S9        30.43F WCI  -3
BLAINE         PTCLDY    12  -8  40 SE9       30.43F WCI   0
LAKEVILLE      CLEAR      7  -8  51 SE7       30.44F WCI  -5
EDEN PRAIRIE   CLOUDY    10  -7  46 SE10      30.43F WCI  -4
SOUTH ST PAUL  CLOUDY    10 -10  41 SE6       30.46F WCI   0
LAKE ELMO      FAIR      10  -8  44 SE5       30.46S WCI   2
$$
MNZ001>005-007-008-013>017-022>024-027-028-140000-
   Northwest Minnesota

CITY           SKY/WX    TMP DP  RH WIND       PRES   REMARKS
BEMIDJI        CLOUDY     8 -10  45 SE10      30.28F WCI  -7
HALLOCK        CLOUDY     9  -4  56 SE13      30.23F WCI  -7
ROSEAU         CLOUDY     7  -8  51 E7        30.28F WCI  -5
WARROAD        CLOUDY     7  -6  56 CALM      30.29F
THIEF RVR FALL CLOUDY     9  -4  56 E10       30.25F WCI  -6
CROOKSTON      CLOUDY    10   0  61 SE18      30.26F WCI  -8
FOSSTON        CLOUDY    12  -9  37 SE8       30.26F WCI   1
DETROIT LAKES  CLOUDY    10  -2  56 SE15G21   30.25F WCI  -6
MOORHEAD       CLOUDY    12   1  62 SE17      30.25F WCI  -5
PARK RAPIDS    CLEAR     11  -9  40 SE13      30.28F WCI  -4
MAHNOMEN       FAIR       9  -6  51 SE13      30.24F WCI  -7
$$
MNZ006-009>011-018-025>026-140000-
   North Central Minnesota

CITY           SKY/WX    TMP DP  RH WIND       PRES   REMARKS
BAUDETTE       CLOUDY     7 -11  43 E10       30.29F WCI  -8
FLAG ISLAND    CLOUDY     3 -13  47 SE8       30.31F WCI -10
INTL FALLS     CLOUDY     4 -12  48 E6        30.34F WCI  -7
WASKISH        CLOUDY    10 -11  37 SE10      30.31F WCI  -3
LONGVILLE      CLEAR     10 -13  34 SE10      30.33F WCI  -3
GRAND RAPIDS   CLEAR      9 -11  40 S10       30.34F WCI  -6
CRANE LAKE     CLOUDY     5 -15  39 CALM      30.40F
ORR            CLOUDY     7 -17  33 CALM      30.33F
COOK           CLOUDY     9 -15  33 CALM      30.36F
WALKER         FAIR       8 -10  43 SE5       30.30F WCI  -1
$$
MNZ012-019>021-037-140000-
   Northeast Minnesota

CITY           SKY/WX    TMP DP  RH WIND       PRES   REMARKS
DULUTH         CLEAR      7 -12  41 S6        30.36F WCI  -3
ELY            CLEAR      7 -11  43 CALM      30.36F
HIBBING        CLOUDY     7 -13  39 SE6       30.35F WCI  -3
EVELETH        CLOUDY    10 -15  31 CALM      30.37S
DULUTH HARBOR  CLEAR     10 -11  37 SW3       30.46F
TWO HARBORS    CLEAR     10  -6  48 S8        30.38F WCI  -1
SILVER BAY     CLEAR      9  -2  61 S3        30.38F
GRAND MARAIS     N/A     10   1  67 CALM      30.45F
G MARAIS ARPRT CLEAR      3  -6  66 S5        30.33S WCI  -6
$$
MNZ029>031-032-039>041-046>048-054>057-064-140000-
   West Central Minnesota

CITY           SKY/WX    TMP DP  RH WIND       PRES   REMARKS
FERGUS FALLS   CLOUDY    12   1  62 SE17      30.30F WCI  -5
WHEATON        CLOUDY    10   3  72 SE20G28   30.28F WCI  -8
MORRIS         CLOUDY    10   0  61 SE22      30.28F WCI  -9
ALEXANDRIA     CLOUDY    11  -3  53 SE17      30.29F WCI  -6
ELBOW LAKE     CLOUDY    12   0  60 E18G24    30.28F WCI  -6
WADENA         CLOUDY     5  -8  56 SE12      30.30F WCI -11
GLENWOOD       CLOUDY    10   0  61 SE15      30.32S WCI  -6
APPLETON       CLOUDY    10   1  67 SE13G20   30.30F WCI  -5
BENSON         CLOUDY    10  -2  56 S14       30.32F WCI  -5
ORTONVILLE     CLOUDY    10   1  67 SE16G24   30.26F WCI  -7
MADISON        CLOUDY    12   3  67 SE20      30.29F WCI  -6
WILLMAR        CLOUDY    10   1  67 SE16      30.36F WCI  -7
$$
MNZ033>034-036-042>043-049>051-058-059-140000-
   Central Minnesota

CITY           SKY/WX    TMP DP  RH WIND       PRES   REMARKS
ST CLOUD       CLOUDY     9  -6  50 SE13      30.39F WCI  -7
SAUK CENTRE    FAIR       9  -4  55 SE10      30.34F WCI  -5
PAYNESVILLE    CLOUDY    10  -3  57 SE10      30.37S WCI  -4
AITKIN         CLEAR     10 -15  31 SE6       30.35F WCI   1
PINE RIVER     CLEAR      9  -9  43 SE9       30.36F WCI  -5
BRAINERD       CLEAR      8 -11  41 SE9       30.35F WCI  -5
STAPLES        CLOUDY     7 -11  43 SE9       30.33F WCI  -7
LONG PRAIRIE   FAIR       9  -6  52 E8        30.34F WCI  -4
LITTLE FALLS   CLOUDY    10  -8  44 SE8       30.38S WCI  -1
LITCHFIELD     CLOUDY    10  -4  52 SE8       30.38F WCI  -1
BUFFALO        CLOUDY    10  -8  43 SE7       30.42F WCI   0
MAPLE LAKE     CLOUDY    11  -4  50 SE7       30.40F WCI   1
$$
MNZ037-044-045-052-053-140000-
   East Central Minnesota

CITY           SKY/WX    TMP DP  RH WIND       PRES   REMARKS
PRINCETON      CLEAR     10  -8  44 SE8       30.40F WCI  -1
MORA           CLEAR     10  -9  40 SE3       30.43F
CAMBRIDGE      CLEAR     12  -6  44 CALM      30.41F
RUSH CITY      CLEAR      9 -10  43 S7        30.43F WCI  -2
MOOSE LAKE     CLEAR     10 -11  37 S6        30.38F WCI   1
HINCKLEY       FAIR      10  -9  40 S3        30.41F
CLOQUET        CLEAR      9 -17  31 S5        30.37F WCI   0
MCGREGOR       CLEAR     12 -11  34 SE3       30.37F
$$
MNZ071>073-080-081-089-090-097-098-140000-
   Southwest Minnesota

CITY           SKY/WX    TMP DP  RH WIND       PRES   REMARKS
MONTEVIDEO     CLOUDY     9   0  66 S13       30.34F WCI  -7
GRANITE FALLS  CLOUDY    11   3  71 SE15      30.35F WCI  -5
CANBY          CLOUDY    14   5  67 E16       30.28F WCI  -2
MARSHALL       CLOUDY    10   0  63 S20       30.29F WCI  -9
REDWOOD FALLS  CLOUDY     9   1  70 SE16      30.37F WCI  -8
OLIVIA         CLOUDY    10   1  67 SE15      30.36F WCI  -6
PIPESTONE      CLOUDY    10  -2  56 S15       30.23F WCI  -6
WINDOM         CLOUDY     9   1  72 SE12      30.32F WCI  -6
WORTHINGTON    CLOUDY     7  -2  66 SE16      30.29F WCI -11
JACKSON        CLOUDY    10   0  61 SE13      30.32F WCI  -5
TRACY          CLOUDY    10   2  69 S13G18    30.30F WCI  -5
SLAYTON        CLOUDY     8   1  75 SE15      30.28F WCI -10
$$
MNZ065>067-074>077-082>085-091>093-140000-
   South Central Minnesota

CITY           SKY/WX    TMP DP  RH WIND       PRES   REMARKS
MANKATO        CLOUDY     9  -2  61 SE10      30.40F WCI  -6
NEW ULM        CLOUDY     9   0  66 S13       30.39F WCI  -7
ST JAMES       CLOUDY    10   3  72 SE15      30.39F WCI  -6
FAIRMONT       CLOUDY     9   0  66 SE16      30.36F WCI  -9
GLENCOE        CLOUDY    10  -1  60 SE9       30.40F WCI  -3
FARIBAULT      CLOUDY     9  -4  56 SE8       30.43F WCI  -4
OWATONNA       CLOUDY     7  -6  56 SE8       30.41F WCI  -6
WASECA         CLOUDY     7  -4  61 SE10      30.42F WCI  -8
ALBERT LEA     CLOUDY     7  -4  61 SE9       30.40F WCI  -7
$$
MNZ078>079-086>088-094>096-140000-
   Southeast Minnesota

CITY           SKY/WX    TMP DP  RH WIND       PRES   REMARKS
ROCHESTER      CLOUDY     3  -7  63 S7        30.42F WCI  -9
RED WING       CLEAR     10 -11  37 SE7       30.47F WCI   0
STANTON        CLOUDY     9  -5  52 S5        30.43F WCI   1
DODGE CENTER   CLOUDY     3  -6  66 SE6       30.40F WCI  -8
WINONA         CLEAR     14  -8  37 CALM      30.50F
AUSTIN         CLOUDY     1  -6  71 SE7       30.41F WCI -11
PRESTON        CLOUDY     4 -11  50 S6        30.43F WCI  -6
$$
ABBREVIATIONS USED IN REMARKS
   TC - TEMPERATURES IN CELSIUS
  WCI - WIND CHILL INDEX
   HX - HEAT INDEX
  VSB - VISIBILITY
$$




USA.gov is the U.S. government's official web portal to all federal, state and local government web resources and services.